P/2009 T2 ( La Sagra )

Japanese version
Home page
Updated on October 3, 2010

---------------------------------------------------------------------

* Profile

Discovery Date October 12, 2009
Magnitude 17.0 mag
Discoverer J. Nomen (La Sagra Sky Survey)

* Pictures

* Orbital Elements

Epoch 2010 Jan. 4.0 TT = JDT 2455200.5
T 2010 Jan. 12.84694 TT                                 MPC
q   1.7548249            (2000.0)            P               Q
n   0.04703473     Peri.  215.47251     +0.35822435     -0.89164663
a   7.6007592      Node   215.98515     +0.92779829     +0.37308068
e   0.7691250      Incl.   28.10963     +0.10423844     -0.25647046
P  20.95

* Finding Charts

* Magnitudes Graph

        m1 = 11 + 5 log d + 20 log r(t + 10)

---------------------------------------------------------------------

The orbital elements are published on M.P.E.C. 2009-W142.
The charts are made with StellaNavigator Ver.8 (AstroArts).
The magnitudes graphs are made with Comet for Windows.

---------------------------------------------------------------------

Copyright(C) Seiichi Yoshida (comet@aerith.net). All rights reserved.